| time (UTC) | temp F | wind direction | speed knots | gust knots | rain 1hr in | rain 24hr in | rain mn in | humidity % | barometer mb |
| 20260510220439 | 56 | 290 | 11.3 | 18.2 | 0.00 | 0.00 | 0.00 | 41 | 1012.0 |
| 20260510220339 | 56 | 290 | 11.3 | 18.2 | 0.00 | 0.00 | 0.00 | 41 | 1012.0 |
| 20260510215439 | 56 | 290 | 11.3 | 18.2 | 0.00 | 0.00 | 0.00 | 41 | 1012.0 |
| 20260510215339 | 56 | 290 | 11.3 | 18.2 | 0.00 | 0.00 | 0.00 | 41 | 1012.0 |
| 20260510214438 | 56 | 290 | 11.3 | 18.2 | 0.00 | 0.00 | 0.00 | 41 | 1012.0 |
| 20260510214338 | 56 | 290 | 11.3 | 18.2 | 0.00 | 0.00 | 0.00 | 41 | 1012.0 |
| 20260510213437 | 56 | 290 | 11.3 | 18.2 | 0.00 | 0.00 | 0.00 | 41 | 1012.0 |
| 20260510213337 | 56 | 290 | 11.3 | 18.2 | 0.00 | 0.00 | 0.00 | 41 | 1012.0 |
| 20260510212437 | 56 | 290 | 11.3 | 18.2 | 0.00 | 0.00 | 0.00 | 41 | 1011.0 |
| 20260510212337 | 56 | 290 | 11.3 | 18.2 | 0.00 | 0.00 | 0.00 | 41 | 1011.0 |
| 20260510211436 | 56 | 290 | 11.3 | 18.2 | 0.00 | 0.00 | 0.00 | 42 | 1011.0 |
| 20260510211336 | 56 | 290 | 11.3 | 18.2 | 0.00 | 0.00 | 0.00 | 42 | 1011.0 |
| 20260510210436 | 56 | 240 | 9.6 | 15.6 | 0.00 | 0.00 | 0.00 | 44 | 1011.0 |
| 20260510210336 | 56 | 240 | 9.6 | 15.6 | 0.00 | 0.00 | 0.00 | 44 | 1011.0 |
| 20260510205435 | 56 | 240 | 9.6 | 15.6 | 0.00 | 0.00 | 0.00 | 44 | 1011.0 |
| 20260510205335 | 56 | 240 | 9.6 | 15.6 | 0.00 | 0.00 | 0.00 | 44 | 1011.0 |
| 20260510204435 | 56 | 240 | 9.6 | 15.6 | 0.00 | 0.00 | 0.00 | 44 | 1011.0 |
| 20260510204334 | 56 | 240 | 9.6 | 15.6 | 0.00 | 0.00 | 0.00 | 44 | 1011.0 |
| 20260510203434 | 56 | 240 | 9.6 | 15.6 | 0.00 | 0.00 | 0.00 | 44 | 1011.0 |
| 20260510203333 | 56 | 240 | 9.6 | 15.6 | 0.00 | 0.00 | 0.00 | 44 | 1011.0 |
| 20260510202433 | 56 | 240 | 9.6 | 15.6 | 0.00 | 0.00 | 0.00 | 45 | 1010.0 |
| 20260510202333 | 56 | 240 | 9.6 | 15.6 | 0.00 | 0.00 | 0.00 | 45 | 1010.0 |
| 20260510201432 | 55 | 240 | 9.6 | 15.6 | 0.00 | 0.00 | 0.00 | 47 | 1011.0 |
| 20260510201332 | 55 | 240 | 9.6 | 15.6 | 0.00 | 0.00 | 0.00 | 47 | 1011.0 |
| 20260510200432 | 54 | 240 | 10.4 | 16.5 | 0.00 | 0.00 | 0.00 | 50 | 1011.0 |
| 20260510200331 | 54 | 240 | 10.4 | 16.5 | 0.00 | 0.00 | 0.00 | 50 | 1011.0 |
| 20260510195431 | 54 | 240 | 10.4 | 16.5 | 0.00 | 0.00 | 0.00 | 50 | 1011.0 |
| 20260510195331 | 54 | 240 | 10.4 | 16.5 | 0.00 | 0.00 | 0.00 | 50 | 1011.0 |
| 20260510194430 | 54 | 240 | 10.4 | 16.5 | 0.00 | 0.00 | 0.00 | 50 | 1011.0 |
| 20260510194330 | 54 | 240 | 10.4 | 16.5 | 0.00 | 0.00 | 0.00 | 50 | 1011.0 |
| 20260510193430 | 54 | 240 | 10.4 | 16.5 | 0.00 | 0.00 | 0.00 | 51 | 1011.0 |
| 20260510193330 | 54 | 240 | 10.4 | 16.5 | 0.00 | 0.00 | 0.00 | 51 | 1011.0 |
| 20260510192429 | 54 | 240 | 10.4 | 16.5 | 0.00 | 0.00 | 0.00 | 53 | 1011.0 |
| 20260510192329 | 54 | 240 | 10.4 | 16.5 | 0.00 | 0.00 | 0.00 | 53 | 1011.0 |
| 20260510191428 | 54 | 240 | 10.4 | 16.5 | 0.00 | 0.00 | 0.00 | 56 | 1011.0 |
| 20260510191328 | 54 | 240 | 10.4 | 16.5 | 0.00 | 0.00 | 0.00 | 56 | 1011.0 |
| 20260510190428 | 53 | 200 | 9.6 | 0.0 | 0.00 | 0.00 | 0.00 | 62 | 1011.0 |
| 20260510190328 | 53 | 200 | 9.6 | 0.0 | 0.00 | 0.00 | 0.00 | 62 | 1011.0 |
| 20260510185427 | 53 | 200 | 9.6 | 0.0 | 0.00 | 0.00 | 0.00 | 62 | 1011.0 |
| 20260510185327 | 53 | 200 | 9.6 | 0.0 | 0.00 | 0.00 | 0.00 | 62 | 1011.0 |
| 20260510184426 | 53 | 200 | 9.6 | 0.0 | 0.00 | 0.00 | 0.00 | 62 | 1011.0 |
| 20260510184326 | 53 | 200 | 9.6 | 0.0 | 0.00 | 0.00 | 0.00 | 62 | 1011.0 |
| 20260510183425 | 53 | 200 | 9.6 | 0.0 | 0.00 | 0.00 | 0.00 | 62 | 1011.0 |
| 20260510183325 | 53 | 200 | 9.6 | 0.0 | 0.00 | 0.00 | 0.00 | 62 | 1011.0 |
| 20260510182424 | 53 | 200 | 9.6 | 0.0 | 0.00 | 0.00 | 0.00 | 62 | 1011.0 |
| 20260510182324 | 53 | 200 | 9.6 | 0.0 | 0.00 | 0.00 | 0.00 | 62 | 1011.0 |
| 20260510181422 | 53 | 200 | 9.6 | 0.0 | 0.00 | 0.00 | 0.00 | 62 | 1011.0 |
| 20260510181322 | 53 | 200 | 9.6 | 0.0 | 0.00 | 0.00 | 0.00 | 62 | 1011.0 |
| 20260510180421 | 49 | 220 | 11.3 | 0.0 | 0.00 | 0.00 | 0.00 | 87 | 1011.0 |
| 20260510180321 | 49 | 220 | 11.3 | 0.0 | 0.00 | 0.00 | 0.00 | 87 | 1011.0 |
| 20260510175421 | 49 | 220 | 11.3 | 0.0 | 0.00 | 0.00 | 0.00 | 87 | 1011.0 |
| 20260510175321 | 49 | 220 | 11.3 | 0.0 | 0.00 | 0.00 | 0.00 | 87 | 1011.0 |
| 20260510174420 | 49 | 220 | 11.3 | 0.0 | 0.00 | 0.00 | 0.00 | 87 | 1011.0 |
| 20260510174320 | 49 | 220 | 11.3 | 0.0 | 0.00 | 0.00 | 0.00 | 87 | 1011.0 |
| 20260510173419 | 49 | 220 | 11.3 | 0.0 | 0.00 | 0.00 | 0.00 | 87 | 1011.0 |
| 20260510173319 | 49 | 220 | 11.3 | 0.0 | 0.00 | 0.00 | 0.00 | 87 | 1011.0 |
| 20260510172418 | 49 | 220 | 11.3 | 0.0 | 0.00 | 0.00 | 0.00 | 87 | 1010.0 |
| 20260510172318 | 49 | 220 | 11.3 | 0.0 | 0.00 | 0.00 | 0.00 | 87 | 1010.0 |
| 20260510171417 | 49 | 220 | 11.3 | 0.0 | 0.00 | 0.00 | 0.00 | 87 | 1010.0 |
| 20260510170415 | 51 | 210 | 12.2 | 0.0 | 0.00 | 0.00 | 0.00 | 82 | 1010.0 |
| 20260510170315 | 51 | 210 | 12.2 | 0.0 | 0.00 | 0.00 | 0.00 | 82 | 1010.0 |
| 20260510165414 | 51 | 210 | 12.2 | 0.0 | 0.00 | 0.00 | 0.00 | 82 | 1010.0 |
| 20260510165314 | 51 | 210 | 12.2 | 0.0 | 0.00 | 0.00 | 0.00 | 82 | 1010.0 |
| 20260510164413 | 51 | 210 | 12.2 | 0.0 | 0.00 | 0.00 | 0.00 | 82 | 1010.0 |
| 20260510164313 | 51 | 210 | 12.2 | 0.0 | 0.00 | 0.00 | 0.00 | 82 | 1010.0 |
| 20260510163412 | 51 | 210 | 12.2 | 0.0 | 0.00 | 0.00 | 0.00 | 82 | 1010.0 |
| 20260510163312 | 51 | 210 | 12.2 | 0.0 | 0.00 | 0.00 | 0.00 | 82 | 1010.0 |
| 20260510162411 | 51 | 210 | 12.2 | 0.0 | 0.00 | 0.00 | 0.00 | 83 | 1010.0 |
| 20260510162311 | 51 | 210 | 12.2 | 0.0 | 0.00 | 0.00 | 0.00 | 83 | 1010.0 |
| 20260510161411 | 51 | 210 | 12.2 | 0.0 | 0.00 | 0.00 | 0.00 | 84 | 1011.0 |
| 20260510161311 | 51 | 210 | 12.2 | 0.0 | 0.00 | 0.00 | 0.00 | 84 | 1011.0 |
| 20260510160410 | 51 | 200 | 10.4 | 0.0 | 0.00 | 0.00 | 0.00 | 87 | 1011.0 |
| 20260510160310 | 51 | 200 | 10.4 | 0.0 | 0.00 | 0.00 | 0.00 | 87 | 1011.0 |
| 20260510155410 | 51 | 200 | 10.4 | 0.0 | 0.00 | 0.00 | 0.00 | 87 | 1011.0 |
| 20260510155309 | 51 | 200 | 10.4 | 0.0 | 0.00 | 0.00 | 0.00 | 87 | 1011.0 |
| 20260510154407 | 51 | 200 | 10.4 | 0.0 | 0.00 | 0.00 | 0.00 | 87 | 1011.0 |
| 20260510154307 | 51 | 200 | 10.4 | 0.0 | 0.00 | 0.00 | 0.00 | 87 | 1011.0 |
| 20260510153407 | 51 | 200 | 10.4 | 0.0 | 0.00 | 0.00 | 0.00 | 87 | 1011.0 |
| 20260510153306 | 51 | 200 | 10.4 | 0.0 | 0.00 | 0.00 | 0.00 | 87 | 1011.0 |
| 20260510152406 | 51 | 200 | 10.4 | 0.0 | 0.01 | 0.00 | 0.00 | 87 | 1011.0 |
| 20260510152307 | 51 | 200 | 10.4 | 0.0 | 0.01 | 0.00 | 0.00 | 87 | 1011.0 |
| 20260510151405 | 51 | 200 | 10.4 | 0.0 | 0.01 | 0.00 | 0.00 | 87 | 1011.0 |
| 20260510151305 | 51 | 200 | 10.4 | 0.0 | 0.01 | 0.00 | 0.00 | 87 | 1011.0 |
| 20260510150405 | 48 | 180 | 11.3 | 20.0 | 0.02 | 0.00 | 0.00 | 93 | 1011.0 |
| 20260510150304 | 48 | 180 | 11.3 | 20.0 | 0.02 | 0.00 | 0.00 | 93 | 1011.0 |
| 20260510145404 | 48 | 180 | 11.3 | 20.0 | 0.01 | 0.00 | 0.00 | 93 | 1011.0 |
| 20260510145306 | 48 | 180 | 11.3 | 20.0 | 0.01 | 0.00 | 0.00 | 93 | 1011.0 |
| 20260510144403 | 48 | 180 | 11.3 | 20.0 | 0.02 | 0.00 | 0.00 | 93 | 1011.0 |
| 20260510144303 | 48 | 180 | 11.3 | 20.0 | 0.02 | 0.00 | 0.00 | 93 | 1011.0 |
| 20260510143403 | 48 | 180 | 11.3 | 20.0 | 0.01 | 0.00 | 0.00 | 92 | 1011.0 |
| 20260510143302 | 48 | 180 | 11.3 | 20.0 | 0.01 | 0.00 | 0.00 | 92 | 1011.0 |
| 20260510142402 | 48 | 180 | 11.3 | 20.0 | 0.01 | 0.00 | 0.00 | 90 | 1011.0 |
| 20260510142305 | 48 | 180 | 11.3 | 20.0 | 0.01 | 0.00 | 0.00 | 90 | 1011.0 |
| 20260510141401 | 49 | 180 | 11.3 | 20.0 | 0.01 | 0.00 | 0.00 | 87 | 1011.0 |
| 20260510141301 | 49 | 180 | 11.3 | 20.0 | 0.01 | 0.00 | 0.00 | 87 | 1011.0 |
| 20260510140400 | 49 | 180 | 11.3 | 20.0 | 0.02 | 0.00 | 0.00 | 87 | 1011.0 |
| 20260510140300 | 49 | 180 | 11.3 | 20.0 | 0.02 | 0.00 | 0.00 | 87 | 1011.0 |
| 20260510135400 | 49 | 180 | 11.3 | 20.0 | 0.00 | 0.00 | 0.00 | 87 | 1011.0 |
| 20260510135259 | 49 | 180 | 11.3 | 20.0 | 0.00 | 0.00 | 0.00 | 87 | 1011.0 |
| 20260510134359 | 49 | 180 | 11.3 | 20.0 | 0.01 | 0.00 | 0.00 | 87 | 1011.0 |
| 20260510134259 | 49 | 180 | 11.3 | 20.0 | 0.01 | 0.00 | 0.00 | 87 | 1011.0 |
| 20260510133359 | 49 | 180 | 11.3 | 20.0 | 0.02 | 0.00 | 0.00 | 87 | 1011.0 |
| 20260510133258 | 49 | 180 | 11.3 | 20.0 | 0.02 | 0.00 | 0.00 | 87 | 1011.0 |
| 20260510132358 | 49 | 180 | 11.3 | 20.0 | 0.00 | 0.00 | 0.00 | 87 | 1010.0 |
| 20260510132258 | 49 | 180 | 11.3 | 20.0 | 0.00 | 0.00 | 0.00 | 87 | 1010.0 |
| 20260510131357 | 49 | 180 | 11.3 | 20.0 | 0.00 | 0.00 | 0.00 | 87 | 1011.0 |
| 20260510131257 | 49 | 180 | 11.3 | 20.0 | 0.00 | 0.00 | 0.00 | 87 | 1011.0 |
| 20260510130357 | 49 | 180 | 11.3 | 20.0 | 0.00 | 0.00 | 0.00 | 87 | 1011.0 |
| 20260510130257 | 49 | 180 | 11.3 | 20.0 | 0.00 | 0.00 | 0.00 | 87 | 1011.0 |
| 20260510125356 | 49 | 180 | 11.3 | 20.0 | 0.00 | 0.00 | 0.00 | 87 | 1011.0 |
| 20260510125256 | 49 | 180 | 11.3 | 20.0 | 0.00 | 0.00 | 0.00 | 87 | 1011.0 |
| 20260510124356 | 49 | 180 | 11.3 | 20.0 | 0.00 | 0.00 | 0.00 | 87 | 1011.0 |
| 20260510124259 | 49 | 180 | 11.3 | 20.0 | 0.00 | 0.00 | 0.00 | 87 | 1011.0 |
| 20260510123355 | 49 | 180 | 11.3 | 20.0 | 0.00 | 0.00 | 0.00 | 87 | 1009.0 |
| 20260510123255 | 49 | 180 | 11.3 | 20.0 | 0.00 | 0.00 | 0.00 | 87 | 1009.0 |
| 20260510122355 | 49 | 180 | 11.3 | 20.0 | 0.00 | 0.00 | 0.00 | 87 | 1009.0 |
| 20260510122254 | 49 | 180 | 11.3 | 20.0 | 0.00 | 0.00 | 0.00 | 87 | 1009.0 |
| 20260510121354 | 48 | 180 | 11.3 | 20.0 | 0.00 | 0.00 | 0.00 | 87 | 1009.0 |
| 20260510121254 | 48 | 180 | 11.3 | 20.0 | 0.00 | 0.00 | 0.00 | 87 | 1009.0 |
| 20260510120354 | 48 | 180 | 11.3 | 20.0 | 0.00 | 0.00 | 0.00 | 87 | 1009.0 |
| 20260510120253 | 48 | 180 | 11.3 | 20.0 | 0.00 | 0.00 | 0.00 | 87 | 1009.0 |
| 20260510115352 | 48 | 180 | 11.3 | 20.0 | 0.00 | 0.00 | 0.00 | 87 | 1009.0 |
| 20260510115252 | 48 | 180 | 11.3 | 20.0 | 0.00 | 0.00 | 0.00 | 87 | 1009.0 |
| 20260510114352 | 48 | 180 | 11.3 | 20.0 | 0.00 | 0.00 | 0.00 | 87 | 1009.0 |
| 20260510114252 | 48 | 180 | 11.3 | 20.0 | 0.00 | 0.00 | 0.00 | 87 | 1009.0 |
| 20260510113351 | 48 | 180 | 11.3 | 20.0 | 0.00 | 0.00 | 0.00 | 87 | 1009.0 |
| 20260510113251 | 48 | 180 | 11.3 | 20.0 | 0.00 | 0.00 | 0.00 | 87 | 1009.0 |
| 20260510112350 | 48 | 180 | 11.3 | 20.0 | 0.00 | 0.00 | 0.00 | 87 | 1009.0 |
| 20260510112250 | 48 | 180 | 11.3 | 20.0 | 0.00 | 0.00 | 0.00 | 87 | 1009.0 |
| 20260510111350 | 48 | 180 | 11.3 | 20.0 | 0.00 | 0.00 | 0.00 | 87 | 1009.0 |
| 20260510111249 | 48 | 180 | 11.3 | 20.0 | 0.00 | 0.00 | 0.00 | 87 | 1009.0 |
| 20260510110349 | 48 | 180 | 11.3 | 20.0 | 0.00 | 0.00 | 0.00 | 87 | 1009.0 |
| 20260510110249 | 48 | 180 | 11.3 | 20.0 | 0.00 | 0.00 | 0.00 | 87 | 1009.0 |
| 20260510105349 | 48 | 180 | 11.3 | 20.0 | 0.00 | 0.00 | 0.00 | 87 | 1009.0 |
| 20260510105248 | 48 | 180 | 11.3 | 20.0 | 0.00 | 0.00 | 0.00 | 87 | 1009.0 |
| 20260510104348 | 48 | 180 | 11.3 | 20.0 | 0.00 | 0.00 | 0.00 | 87 | 1009.0 |
| 20260510104248 | 48 | 180 | 11.3 | 20.0 | 0.00 | 0.00 | 0.00 | 87 | 1009.0 |
| 20260510103348 | 48 | 180 | 11.3 | 20.0 | 0.00 | 0.00 | 0.00 | 87 | 1009.0 |
| 20260510103247 | 48 | 180 | 11.3 | 20.0 | 0.00 | 0.00 | 0.00 | 87 | 1009.0 |
| 20260510102347 | 48 | 180 | 11.3 | 20.0 | 0.00 | 0.00 | 0.00 | 87 | 1008.0 |
| 20260510102247 | 48 | 180 | 11.3 | 20.0 | 0.00 | 0.00 | 0.00 | 87 | 1008.0 |
| 20260510101347 | 49 | 180 | 11.3 | 20.0 | 0.00 | 0.00 | 0.00 | 87 | 1008.0 |
| 20260510101246 | 49 | 180 | 11.3 | 20.0 | 0.00 | 0.00 | 0.00 | 87 | 1008.0 |
| 20260510100345 | 49 | 180 | 11.3 | 20.0 | 0.00 | 0.00 | 0.00 | 87 | 1008.0 |
| 20260510100245 | 49 | 180 | 11.3 | 20.0 | 0.00 | 0.00 | 0.00 | 87 | 1008.0 |
| 20260510095345 | 49 | 180 | 11.3 | 20.0 | 0.00 | 0.00 | 0.00 | 87 | 1008.0 |
| 20260510095245 | 49 | 180 | 11.3 | 20.0 | 0.00 | 0.00 | 0.00 | 87 | 1008.0 |
| 20260510094344 | 49 | 180 | 11.3 | 20.0 | 0.00 | 0.00 | 0.00 | 87 | 1008.0 |
| 20260510094244 | 49 | 180 | 11.3 | 20.0 | 0.00 | 0.00 | 0.00 | 87 | 1008.0 |
| 20260510093344 | 49 | 180 | 11.3 | 20.0 | 0.00 | 0.00 | 0.00 | 87 | 1008.0 |
| 20260510093244 | 49 | 180 | 11.3 | 20.0 | 0.00 | 0.00 | 0.00 | 87 | 1008.0 |
| 20260510092343 | 49 | 180 | 11.3 | 20.0 | 0.00 | 0.00 | 0.00 | 86 | 1008.0 |
| 20260510092243 | 49 | 180 | 11.3 | 20.0 | 0.00 | 0.00 | 0.00 | 86 | 1008.0 |
| 20260510091342 | 49 | 180 | 11.3 | 20.0 | 0.00 | 0.00 | 0.00 | 84 | 1008.0 |
| 20260510091242 | 49 | 180 | 11.3 | 20.0 | 0.00 | 0.00 | 0.00 | 84 | 1008.0 |
| 20260510090342 | 49 | 180 | 11.3 | 20.0 | 0.00 | 0.00 | 0.00 | 81 | 1008.0 |
| 20260510090241 | 49 | 180 | 11.3 | 20.0 | 0.00 | 0.00 | 0.00 | 81 | 1008.0 |
| 20260510085341 | 49 | 180 | 11.3 | 20.0 | 0.00 | 0.00 | 0.00 | 81 | 1008.0 |
| 20260510085241 | 49 | 180 | 11.3 | 20.0 | 0.00 | 0.00 | 0.00 | 81 | 1008.0 |
| 20260510084340 | 49 | 180 | 11.3 | 20.0 | 0.00 | 0.00 | 0.00 | 81 | 1008.0 |
| 20260510084240 | 49 | 180 | 11.3 | 20.0 | 0.00 | 0.00 | 0.00 | 81 | 1008.0 |
| 20260510083339 | 49 | 180 | 11.3 | 20.0 | 0.02 | 0.00 | 0.00 | 81 | 1008.0 |
| 20260510083239 | 49 | 180 | 11.3 | 20.0 | 0.02 | 0.00 | 0.00 | 81 | 1008.0 |
| 20260510082339 | 49 | 180 | 11.3 | 20.0 | 0.01 | 0.00 | 0.00 | 81 | 1007.0 |
| 20260510082239 | 49 | 180 | 11.3 | 20.0 | 0.01 | 0.00 | 0.00 | 81 | 1007.0 |
| 20260510081338 | 49 | 180 | 11.3 | 20.0 | 0.01 | 0.00 | 0.00 | 81 | 1007.0 |
| 20260510081238 | 49 | 180 | 11.3 | 20.0 | 0.01 | 0.00 | 0.00 | 81 | 1007.0 |
| 20260510080337 | 49 | 180 | 11.3 | 20.0 | 0.00 | 0.00 | 0.00 | 81 | 1007.0 |
| 20260510080237 | 49 | 180 | 11.3 | 20.0 | 0.00 | 0.00 | 0.00 | 81 | 1007.0 |
| 20260510075337 | 49 | 180 | 11.3 | 20.0 | 0.00 | 0.00 | 0.00 | 81 | 1007.0 |
| 20260510075236 | 49 | 180 | 11.3 | 20.0 | 0.00 | 0.00 | 0.00 | 81 | 1007.0 |
| 20260510074336 | 49 | 180 | 11.3 | 20.0 | 0.00 | 0.00 | 0.00 | 81 | 1007.0 |
| 20260510074236 | 49 | 180 | 11.3 | 20.0 | 0.00 | 0.00 | 0.00 | 81 | 1007.0 |
| 20260510073336 | 49 | 180 | 11.3 | 20.0 | 0.00 | 0.00 | 0.00 | 81 | 1008.0 |
| 20260510073236 | 49 | 180 | 11.3 | 20.0 | 0.00 | 0.00 | 0.00 | 81 | 1008.0 |
| 20260510072335 | 49 | 180 | 11.3 | 20.0 | 0.00 | 0.00 | 0.00 | 81 | 1008.0 |
| 20260510072235 | 49 | 180 | 11.3 | 20.0 | 0.00 | 0.00 | 0.00 | 81 | 1008.0 |
| 20260510071335 | 49 | 180 | 11.3 | 20.0 | 0.00 | 0.00 | 0.00 | 81 | 1008.0 |
| 20260510071235 | 49 | 180 | 11.3 | 20.0 | 0.00 | 0.00 | 0.00 | 81 | 1008.0 |
| 20260510070334 | 49 | 180 | 11.3 | 20.0 | 0.00 | 0.00 | 0.00 | 81 | 1008.0 |
| 20260510070234 | 49 | 180 | 11.3 | 20.0 | 0.00 | 0.00 | 0.00 | 81 | 1008.0 |
| 20260510065334 | 49 | 180 | 11.3 | 20.0 | 0.00 | 0.00 | 0.00 | 81 | 1008.0 |
| 20260510065233 | 49 | 180 | 11.3 | 20.0 | 0.00 | 0.00 | 0.00 | 81 | 1008.0 |
| 20260510064333 | 49 | 180 | 11.3 | 20.0 | 0.00 | 0.00 | 0.00 | 81 | 1008.0 |
| 20260510064233 | 49 | 180 | 11.3 | 20.0 | 0.00 | 0.00 | 0.00 | 81 | 1008.0 |
| 20260510063332 | 49 | 180 | 11.3 | 20.0 | 0.00 | 0.00 | 0.00 | 81 | 1008.0 |
| 20260510063232 | 49 | 180 | 11.3 | 20.0 | 0.00 | 0.00 | 0.00 | 81 | 1008.0 |
| 20260510062332 | 49 | 180 | 11.3 | 20.0 | 0.00 | 0.00 | 0.00 | 80 | 1007.0 |
| 20260510062232 | 49 | 180 | 11.3 | 20.0 | 0.00 | 0.00 | 0.00 | 80 | 1007.0 |
| 20260510061331 | 49 | 180 | 11.3 | 20.0 | 0.00 | 0.00 | 0.00 | 79 | 1007.0 |
| 20260510061231 | 49 | 180 | 11.3 | 20.0 | 0.00 | 0.00 | 0.00 | 79 | 1007.0 |
| 20260510060331 | 49 | 180 | 11.3 | 20.0 | 0.00 | 0.00 | 0.00 | 76 | 1007.0 |
| 20260510060230 | 49 | 180 | 11.3 | 20.0 | 0.00 | 0.00 | 0.00 | 76 | 1007.0 |
| 20260510055330 | 49 | 180 | 11.3 | 20.0 | 0.00 | 0.00 | 0.00 | 76 | 1007.0 |
| 20260510055230 | 49 | 180 | 11.3 | 20.0 | 0.00 | 0.00 | 0.00 | 76 | 1007.0 |
| 20260510054329 | 49 | 180 | 11.3 | 20.0 | 0.00 | 0.00 | 0.00 | 76 | 1007.0 |
| 20260510054229 | 49 | 180 | 11.3 | 20.0 | 0.00 | 0.00 | 0.00 | 76 | 1007.0 |
| 20260510053329 | 49 | 180 | 11.3 | 20.0 | 0.00 | 0.00 | 0.00 | 76 | 1008.0 |
| 20260510053228 | 49 | 180 | 11.3 | 20.0 | 0.00 | 0.00 | 0.00 | 76 | 1008.0 |
| 20260510052328 | 49 | 180 | 11.3 | 20.0 | 0.00 | 0.00 | 0.00 | 76 | 1008.0 |
| 20260510052228 | 49 | 180 | 11.3 | 20.0 | 0.00 | 0.00 | 0.00 | 76 | 1008.0 |
| 20260510051227 | 49 | 180 | 11.3 | 20.0 | 0.00 | 0.00 | 0.00 | 76 | 1008.0 |
| 20260510050327 | 49 | 170 | 10.4 | 16.5 | 0.00 | 0.00 | 0.00 | 76 | 1008.0 |
| 20260510050227 | 49 | 170 | 10.4 | 16.5 | 0.00 | 0.00 | 0.00 | 76 | 1008.0 |
| 20260510045327 | 49 | 170 | 10.4 | 16.5 | 0.00 | 0.00 | 0.00 | 76 | 1008.0 |
| 20260510045226 | 49 | 170 | 10.4 | 16.5 | 0.00 | 0.00 | 0.00 | 76 | 1008.0 |
| 20260510044326 | 49 | 170 | 10.4 | 16.5 | 0.00 | 0.00 | 0.00 | 76 | 1008.0 |
| 20260510044226 | 49 | 170 | 10.4 | 16.5 | 0.00 | 0.00 | 0.00 | 76 | 1008.0 |
| 20260510043326 | 49 | 170 | 10.4 | 16.5 | 0.00 | 0.00 | 0.00 | 76 | 1008.0 |
| 20260510043226 | 49 | 170 | 10.4 | 16.5 | 0.00 | 0.00 | 0.00 | 76 | 1008.0 |
| 20260510042325 | 49 | 170 | 10.4 | 16.5 | 0.00 | 0.00 | 0.00 | 75 | 1008.0 |
| 20260510042225 | 49 | 170 | 10.4 | 16.5 | 0.00 | 0.00 | 0.00 | 75 | 1008.0 |
| 20260510041324 | 49 | 170 | 10.4 | 16.5 | 0.00 | 0.00 | 0.00 | 74 | 1008.0 |
| 20260510041224 | 49 | 170 | 10.4 | 16.5 | 0.00 | 0.00 | 0.00 | 74 | 1008.0 |
| 20260510040324 | 49 | 170 | 7.0 | 0.0 | 0.00 | 0.00 | 0.00 | 71 | 1008.0 |
| 20260510040224 | 49 | 170 | 7.0 | 0.0 | 0.00 | 0.00 | 0.00 | 71 | 1008.0 |
| 20260510035323 | 49 | 170 | 7.0 | 0.0 | 0.00 | 0.00 | 0.00 | 71 | 1008.0 |
| 20260510035223 | 49 | 170 | 7.0 | 0.0 | 0.00 | 0.00 | 0.00 | 71 | 1008.0 |
| 20260510034322 | 49 | 170 | 7.0 | 0.0 | 0.00 | 0.00 | 0.00 | 71 | 1008.0 |
| 20260510034222 | 49 | 170 | 7.0 | 0.0 | 0.00 | 0.00 | 0.00 | 71 | 1008.0 |
| 20260510033322 | 49 | 170 | 7.0 | 0.0 | 0.00 | 0.00 | 0.00 | 71 | 1009.0 |
| 20260510033222 | 49 | 170 | 7.0 | 0.0 | 0.00 | 0.00 | 0.00 | 71 | 1009.0 |
| 20260510032321 | 49 | 170 | 7.0 | 0.0 | 0.00 | 0.00 | 0.00 | 70 | 1009.0 |
| 20260510032221 | 49 | 170 | 7.0 | 0.0 | 0.00 | 0.00 | 0.00 | 70 | 1009.0 |
| 20260510031320 | 49 | 170 | 7.0 | 0.0 | 0.00 | 0.00 | 0.00 | 69 | 1009.0 |
| 20260510031220 | 49 | 170 | 7.0 | 0.0 | 0.00 | 0.00 | 0.00 | 69 | 1009.0 |
| 20260510030320 | 49 | 170 | 7.0 | 0.0 | 0.00 | 0.00 | 0.00 | 66 | 1009.0 |
| 20260510030219 | 49 | 170 | 7.0 | 0.0 | 0.00 | 0.00 | 0.00 | 66 | 1009.0 |
| 20260510025319 | 49 | 170 | 7.0 | 0.0 | 0.00 | 0.00 | 0.00 | 66 | 1009.0 |
| 20260510025219 | 49 | 170 | 7.0 | 0.0 | 0.00 | 0.00 | 0.00 | 66 | 1009.0 |
| 20260510024319 | 49 | 170 | 7.0 | 0.0 | 0.00 | 0.00 | 0.00 | 66 | 1009.0 |
| 20260510024219 | 49 | 170 | 7.0 | 0.0 | 0.00 | 0.00 | 0.00 | 66 | 1009.0 |
| 20260510023318 | 49 | 170 | 7.0 | 0.0 | 0.00 | 0.00 | 0.00 | 66 | 1009.0 |
| 20260510023218 | 49 | 170 | 7.0 | 0.0 | 0.00 | 0.00 | 0.00 | 66 | 1009.0 |
| 20260510022317 | 49 | 170 | 7.0 | 0.0 | 0.00 | 0.00 | 0.00 | 66 | 1009.0 |
| 20260510022217 | 49 | 170 | 7.0 | 0.0 | 0.00 | 0.00 | 0.00 | 66 | 1009.0 |
| 20260510021316 | 49 | 170 | 7.0 | 0.0 | 0.00 | 0.00 | 0.00 | 66 | 1009.0 |
| 20260510021216 | 49 | 170 | 7.0 | 0.0 | 0.00 | 0.00 | 0.00 | 66 | 1009.0 |
| 20260510020316 | 49 | 150 | 5.2 | 0.0 | 0.00 | 0.00 | 0.00 | 66 | 1009.0 |
| 20260510020216 | 49 | 150 | 5.2 | 0.0 | 0.00 | 0.00 | 0.00 | 66 | 1009.0 |
| 20260510015316 | 49 | 150 | 5.2 | 0.0 | 0.00 | 0.00 | 0.00 | 66 | 1009.0 |
| 20260510015215 | 49 | 150 | 5.2 | 0.0 | 0.00 | 0.00 | 0.00 | 66 | 1009.0 |
| 20260510014315 | 49 | 150 | 5.2 | 0.0 | 0.00 | 0.00 | 0.00 | 66 | 1009.0 |
| 20260510014214 | 49 | 150 | 5.2 | 0.0 | 0.00 | 0.00 | 0.00 | 66 | 1009.0 |
| 20260510013314 | 50 | 190 | 13.0 | 20.0 | 0.00 | 0.00 | 0.00 | 66 | 1010.0 |
| 20260510013214 | 50 | 190 | 13.0 | 20.0 | 0.00 | 0.00 | 0.00 | 66 | 1010.0 |
| 20260510012313 | 50 | 190 | 13.0 | 20.0 | 0.00 | 0.00 | 0.00 | 66 | 1010.0 |
| 20260510012213 | 50 | 190 | 13.0 | 20.0 | 0.00 | 0.00 | 0.00 | 66 | 1010.0 |
| 20260510011313 | 50 | 190 | 13.0 | 20.0 | 0.00 | 0.00 | 0.00 | 66 | 1009.0 |
| 20260510011213 | 50 | 190 | 13.0 | 20.0 | 0.00 | 0.00 | 0.00 | 66 | 1009.0 |
| 20260510010312 | 50 | 190 | 13.0 | 20.0 | 0.00 | 0.00 | 0.00 | 66 | 1009.0 |
| 20260510005312 | 50 | 190 | 13.0 | 20.0 | 0.00 | 0.00 | 0.00 | 66 | 1009.0 |
| 20260510005212 | 50 | 190 | 13.0 | 20.0 | 0.00 | 0.00 | 0.00 | 66 | 1009.0 |
| 20260510004311 | 50 | 190 | 13.0 | 20.0 | 0.00 | 0.00 | 0.00 | 66 | 1009.0 |
| 20260510004211 | 50 | 190 | 13.0 | 20.0 | 0.00 | 0.00 | 0.00 | 66 | 1009.0 |
| 20260510003310 | 50 | 190 | 13.0 | 20.0 | 0.00 | 0.00 | 0.00 | 66 | 1008.0 |
| 20260510003210 | 50 | 190 | 13.0 | 20.0 | 0.00 | 0.00 | 0.00 | 66 | 1008.0 |
| 20260510002310 | 50 | 190 | 13.0 | 20.0 | 0.00 | 0.00 | 0.00 | 65 | 1008.0 |
| 20260510002209 | 50 | 190 | 13.0 | 20.0 | 0.00 | 0.00 | 0.00 | 65 | 1008.0 |
| 20260510001309 | 50 | 190 | 13.0 | 20.0 | 0.00 | 0.00 | 0.00 | 64 | 1008.0 |
| 20260510001209 | 50 | 190 | 13.0 | 20.0 | 0.00 | 0.00 | 0.00 | 64 | 1008.0 |
| 20260510000311 | 51 | 190 | 13.0 | 20.0 | 0.00 | 0.00 | 0.00 | 62 | 1008.0 |
| 20260510000208 | 51 | 190 | 13.0 | 20.0 | 0.00 | 0.00 | 0.00 | 62 | 1008.0 |
| 20260509235308 | 51 | 190 | 13.0 | 20.0 | 0.00 | 0.00 | 0.00 | 62 | 1008.0 |
| 20260509235207 | 51 | 190 | 13.0 | 20.0 | 0.00 | 0.00 | 0.00 | 62 | 1008.0 |
| 20260509234307 | 51 | 190 | 13.0 | 20.0 | 0.00 | 0.00 | 0.00 | 62 | 1008.0 |
| 20260509234207 | 51 | 190 | 13.0 | 20.0 | 0.00 | 0.00 | 0.00 | 62 | 1008.0 |
| 20260509233307 | 51 | 190 | 13.0 | 20.0 | 0.00 | 0.00 | 0.00 | 62 | 1008.0 |
| 20260509233207 | 51 | 190 | 13.0 | 20.0 | 0.00 | 0.00 | 0.00 | 62 | 1008.0 |
| 20260509232306 | 51 | 190 | 13.0 | 20.0 | 0.00 | 0.00 | 0.00 | 62 | 1008.0 |
| 20260509232206 | 51 | 190 | 13.0 | 20.0 | 0.00 | 0.00 | 0.00 | 62 | 1008.0 |
| 20260509231305 | 51 | 190 | 13.0 | 20.0 | 0.00 | 0.00 | 0.00 | 62 | 1008.0 |
| 20260509231205 | 51 | 190 | 13.0 | 20.0 | 0.00 | 0.00 | 0.00 | 62 | 1008.0 |
| 20260509230305 | 51 | 190 | 13.9 | 20.0 | 0.00 | 0.00 | 0.00 | 62 | 1008.0 |
| 20260509230204 | 51 | 190 | 13.9 | 20.0 | 0.00 | 0.00 | 0.00 | 62 | 1008.0 |
| 20260509225306 | 51 | 190 | 13.9 | 20.0 | 0.00 | 0.00 | 0.00 | 62 | 1008.0 |
| 20260509225204 | 51 | 190 | 13.9 | 20.0 | 0.00 | 0.00 | 0.00 | 62 | 1008.0 |
| 20260509224303 | 51 | 190 | 13.9 | 20.0 | 0.00 | 0.00 | 0.00 | 62 | 1008.0 |
| 20260509224203 | 51 | 190 | 13.9 | 20.0 | 0.00 | 0.00 | 0.00 | 62 | 1008.0 |
| 20260509223303 | 51 | 190 | 13.9 | 20.0 | 0.00 | 0.00 | 0.00 | 62 | 1008.0 |
| 20260509223202 | 51 | 190 | 13.9 | 20.0 | 0.00 | 0.00 | 0.00 | 62 | 1008.0 |
| 20260509222306 | 51 | 190 | 13.9 | 20.0 | 0.00 | 0.00 | 0.00 | 62 | 1008.0 |
| 20260509222202 | 51 | 190 | 13.9 | 20.0 | 0.00 | 0.00 | 0.00 | 62 | 1008.0 |
| 20260509221301 | 56 | 174 | 10.4 | 20.9 | 0.00 | 0.00 | 0.00 | 51 | 1008.0 |
| 20260509221201 | 56 | 174 | 10.4 | 20.9 | 0.00 | 0.00 | 0.00 | 51 | 1008.0 |